| time (UTC) | temp F | wind direction | speed MPH | gust MPH | rain 1hr in | rain 24hr in | rain mn in | humidity % | barometer mb |
| 20260504081506 | 0 | 0.0 | 0.0 | 0.00 | 0.00 | 0.00 | 1013.6 | ||
| 20260504050008 | 0 | 0.0 | 0.0 | 0.00 | 0.00 | 0.00 | 1014.6 | ||
| 20260504044504 | 0 | 0.0 | 0.0 | 0.00 | 0.00 | 0.00 | 1014.4 | ||
| 20260504043115 | 0 | 0.0 | 0.0 | 0.00 | 0.00 | 0.00 | 1014.4 | ||
| 20260504041556 | 0 | 0.0 | 0.0 | 0.00 | 0.00 | 0.00 | 1014.3 | ||
| 20260504040050 | 0 | 0.0 | 0.0 | 0.00 | 0.00 | 0.00 | 1014.4 | ||
| 20260504034546 | 0 | 0.0 | 0.0 | 0.00 | 0.00 | 0.00 | 1014.5 | ||
| 20260504033050 | 0 | 0.0 | 0.0 | 0.00 | 0.00 | 0.00 | 1014.4 | ||
| 20260504031537 | 0 | 0.0 | 0.0 | 0.00 | 0.00 | 0.00 | 1014.5 | ||
| 20260504030033 | 0 | 0.0 | 0.0 | 0.00 | 0.00 | 0.00 | 1014.4 | ||
| 20260504024541 | 0 | 0.0 | 0.0 | 0.00 | 0.00 | 0.00 | 1014.3 | ||
| 20260504023024 | 0 | 0.0 | 0.0 | 0.00 | 0.00 | 0.00 | 1014.2 | ||
| 20260504021519 | 0 | 0.0 | 0.0 | 0.00 | 0.00 | 0.00 | 1014.2 | ||
| 20260504020017 | 0 | 0.0 | 0.0 | 0.00 | 0.00 | 0.00 | 1014.1 | ||
| 20260504014510 | 0 | 0.0 | 0.0 | 0.00 | 0.00 | 0.00 | 1013.9 | ||
| 20260504013006 | 0 | 0.0 | 0.0 | 0.00 | 0.00 | 0.00 | 1013.7 | ||
| 20260504011502 | 0 | 0.0 | 0.0 | 0.00 | 0.00 | 0.00 | 1013.4 | ||
| 20260504010059 | 0 | 0.0 | 0.0 | 0.00 | 0.00 | 0.00 | 1013.3 | ||
| 20260504004606 | 0 | 0.0 | 0.0 | 0.00 | 0.00 | 0.00 | 1013.3 | ||
| 20260504003049 | 0 | 236 | 8.0 | 0.0 | 0.00 | 0.00 | 0.00 | 1013.2 | |
| 20260504001548 | 72 | 229 | 7.0 | 0.0 | 0.00 | 0.00 | 0.00 | 53 | 1013.1 |
| 20260504000050 | 73 | 238 | 6.0 | 0.0 | 0.00 | 0.00 | 0.00 | 51 | 1012.8 |
| 20260503234547 | 73 | 239 | 7.0 | 0.0 | 0.00 | 0.00 | 0.00 | 57 | 1012.9 |
| 20260503233047 | 73 | 221 | 7.0 | 0.0 | 0.00 | 0.00 | 0.00 | 50 | 1013.0 |
| 20260503231552 | 73 | 188 | 6.0 | 0.0 | 0.00 | 0.00 | 0.00 | 52 | 1013.0 |
| 20260503230050 | 73 | 193 | 9.0 | 0.0 | 0.00 | 0.00 | 0.00 | 50 | 1012.7 |
| 20260503224545 | 73 | 196 | 7.0 | 0.0 | 0.00 | 0.00 | 0.00 | 52 | 1012.8 |
| 20260503223044 | 73 | 221 | 7.0 | 0.0 | 0.00 | 0.00 | 0.00 | 56 | 1012.8 |
| 20260503221545 | 72 | 198 | 8.0 | 0.0 | 0.00 | 0.00 | 0.00 | 52 | 1013.0 |
| 20260503220041 | 72 | 198 | 9.0 | 0.0 | 0.00 | 0.00 | 0.00 | 48 | 1013.0 |
| 20260503214540 | 72 | 232 | 10.0 | 0.0 | 0.00 | 0.00 | 0.00 | 53 | 1013.0 |
| 20260503213043 | 73 | 227 | 8.0 | 0.0 | 0.00 | 0.00 | 0.00 | 51 | 1013.1 |
| 20260503211540 | 74 | 268 | 6.0 | 0.0 | 0.00 | 0.00 | 0.00 | 45 | 1013.0 |
| 20260503210035 | 76 | 289 | 8.0 | 0.0 | 0.00 | 0.00 | 0.00 | 29 | 1013.2 |
| 20260503204533 | 75 | 317 | 10.0 | 0.0 | 0.00 | 0.00 | 0.00 | 31 | 1013.5 |
| 20260503203031 | 75 | 307 | 9.0 | 0.0 | 0.00 | 0.00 | 0.00 | 37 | 1013.5 |
| 20260503201529 | 75 | 311 | 9.0 | 0.0 | 0.00 | 0.00 | 0.00 | 32 | 1013.9 |
| 20260503200027 | 75 | 320 | 5.0 | 0.0 | 0.00 | 0.00 | 0.00 | 32 | 1014.0 |
| 20260503194525 | 74 | 284 | 10.0 | 0.0 | 0.00 | 0.00 | 0.00 | 35 | 1014.3 |
| 20260503193035 | 75 | 335 | 8.0 | 0.0 | 0.00 | 0.00 | 0.00 | 34 | 1014.6 |
| 20260503191522 | 74 | 298 | 6.0 | 0.0 | 0.00 | 0.00 | 0.00 | 34 | 1014.8 |
| 20260503190029 | 74 | 5 | 6.0 | 0.0 | 0.00 | 0.00 | 0.00 | 41 | 1015.0 |
| 20260503184519 | 73 | 5 | 8.0 | 0.0 | 0.00 | 0.00 | 0.00 | 33 | 1015.1 |
| 20260503183018 | 73 | 290 | 8.0 | 0.0 | 0.00 | 0.00 | 0.00 | 36 | 1015.4 |
| 20260503181517 | 73 | 314 | 10.0 | 0.0 | 0.00 | 0.00 | 0.00 | 37 | 1015.4 |
| 20260503180018 | 72 | 325 | 9.0 | 0.0 | 0.00 | 0.00 | 0.00 | 39 | 1015.5 |
| 20260503174516 | 73 | 296 | 6.0 | 0.0 | 0.00 | 0.00 | 0.00 | 37 | 1015.7 |
| 20260503173019 | 73 | 313 | 7.0 | 0.0 | 0.00 | 0.00 | 0.00 | 35 | 1015.9 |
| 20260503171511 | 72 | 355 | 8.0 | 0.0 | 0.00 | 0.00 | 0.00 | 39 | 1016.2 |